Find Starlink 5644

NORAD ID: 55369 Int'l Des: 2023-013 Owner: SPXS Country: US Constellation: starlink operational
LEOCIRCULAR

Live-Position

3D-Globus wird geladen...

Über Starlink 5644

Beschreibung wird geladen...

Nächste Überflüge

Passes for default location (London). Set your location on the main map for personalized predictions.

Höhenverlauf

Loading altitude history...

Zweizeiliger Elementsatz

1 55369U 23013AQ 26105.73363362 .00000530 00000-0 44091-4 0 9994
2 55369 43.0023 110.1814 0001399 275.3963 84.6723 15.11071518177156
Epoch: 15. Apr. 2026 • Age: 9 hours

Aktueller Status

Höhe 538.8 km
Geschwindigkeit 7.59 km/s
Subsatellitenpunkt -25.53°S, 76.94°E
Startdatum 26. Jan. 2023
Alter 3.2 years
Typ internet

Technische Details

Klassifizierung Payload
Masse 305.00 kg
Trockenmasse 290.00 kg
Gesamtmasse 305.00 kg
Länge 0.20 m
Durchmesser 2.80 m
Spannweite 9.00 m
Form Box + pan
Hersteller SPXS
Bus-Typ Starlink
Phasenstatus In Orbit
Besitzer/Staat SPXS/US

Most Searched